Theta_e
337 335 334 331 324 323 331 334 334 335 334 329 326 329 327 322 322 327 331 329 329 336 340 336 332 333 333 332 332 330 331 334 333 333 335 336 336 337 337 336 337 342 338 323 317 318 319 318 318 319 320 320 320 320 319 320 320 319 318 319 321 321 320 320 321 321 322 322 322 322 321 320 320 319 318 317 316 314 312 311 311 312 313 314 314 314 313
328 330 331 330 327 324 329 336 336 334 336 333 329 332 329 322 324 330 326 326 330 329 330 335 335 333 330 328 327 328 331 336 336 334 335 336 336 337 339 338 340 342 331 317 315 319 319 317 318 318 317 318 318 318 318 318 318 318 318 319 320 321 321 320 321 321 321 322 321 321 321 320 320 319 317 317 316 314 312 311 311 312 313 313 313 312 311
326 332 335 333 331 328 328 332 332 329 330 328 325 329 329 323 326 327 322 325 331 325 323 329 327 324 325 327 331 336 337 338 337 334 334 335 336 337 338 339 339 340 328 314 314 319 318 316 317 316 315 316 315 316 316 315 316 317 317 318 320 321 321 320 321 321 320 321 320 320 320 319 319 318 317 316 315 313 312 311 311 312 313 313 312 311 310
327 332 336 337 336 329 327 332 334 330 330 331 330 332 330 327 332 330 323 328 337 331 323 323 324 325 327 331 337 339 338 337 337 336 335 335 335 336 338 338 339 343 335 319 315 318 318 317 317 316 315 316 315 315 316 315 315 316 316 318 319 320 321 320 320 320 319 320 319 319 319 318 318 317 316 315 314 313 312 311 311 312 313 313 311 309 309
326 332 335 337 337 330 330 338 340 333 333 334 330 329 328 327 331 334 330 333 338 332 323 322 324 326 330 334 337 336 335 336 335 334 333 332 332 334 336 339 341 340 331 320 317 319 319 318 318 317 316 316 316 317 316 315 316 316 316 317 318 319 321 320 320 320 319 319 319 318 318 317 316 315 314 313 313 312 311 311 311 312 313 312 310 308 308
329 338 335 327 325 328 334 340 338 332 333 333 330 334 336 329 326 329 330 328 328 328 327 328 326 327 330 331 330 328 328 331 334 334 332 329 329 329 331 337 335 324 318 318 319 319 319 319 319 318 317 317 317 317 317 317 316 315 316 316 317 318 319 319 319 319 318 318 318 317 317 316 314 313 312 312 312 311 311 310 311 312 312 311 309 308 308
333 339 335 321 321 333 339 336 330 328 329 329 330 335 338 331 325 327 329 326 326 329 331 329 326 326 328 327 327 327 324 324 328 331 331 328 326 328 333 336 328 315 314 319 319 318 319 320 319 319 318 318 318 318 318 318 317 316 316 315 315 316 316 317 317 316 315 315 315 314 315 314 313 313 312 312 311 311 311 311 311 311 311 310 309 308 308
327 328 326 323 326 335 338 330 323 323 324 323 324 329 338 339 329 325 328 326 324 328 331 327 322 323 325 326 329 331 327 323 323 326 329 330 328 327 328 326 320 316 317 319 319 319 320 319 319 319 319 319 319 318 318 318 318 317 316 315 316 315 315 315 315 314 314 313 313 313 313 313 313 313 312 312 311 311 311 311 311 311 310 310 309 308 308
327 328 328 331 328 329 337 334 325 325 330 331 329 327 338 350 337 325 328 330 323 323 327 325 322 323 325 328 331 331 330 329 325 322 322 323 322 319 317 317 318 318 320 320 319 320 320 319 320 319 319 319 319 318 319 318 318 318 316 316 316 316 315 315 315 314 314 314 313 312 312 312 313 312 312 312 311 311 311 311 310 310 310 309 309 309 309
328 331 331 334 330 329 341 341 330 329 333 338 335 325 327 344 339 324 327 332 329 325 323 323 324 324 324 328 332 328 327 330 331 324 316 313 314 315 314 317 319 319 319 320 320 319 319 319 320 319 319 320 319 318 319 319 318 318 317 317 317 317 317 317 316 316 315 315 314 313 312 312 312 312 312 312 311 311 311 310 310 310 310 309 309 309 309
329 330 331 333 332 332 339 341 335 331 327 330 333 327 327 340 338 323 324 332 332 327 325 325 326 324 325 330 330 327 326 328 331 332 323 313 312 315 316 317 319 319 319 320 319 319 319 319 319 319 319 319 319 319 319 319 318 318 317 318 318 318 318 318 317 317 316 315 315 314 313 312 312 312 312 311 311 311 311 310 310 309 309 309 309 309 308
331 332 333 333 331 330 331 336 339 332 323 325 327 326 334 350 343 324 324 335 335 327 326 326 325 327 330 329 329 331 327 320 319 324 325 317 313 315 318 319 319 319 319 318 318 319 319 319 320 319 319 319 319 319 319 318 318 318 318 319 318 318 318 318 318 318 317 316 316 315 314 314 313 312 312 311 311 311 310 310 310 309 309 309 308 308 307
331 328 329 327 329 335 335 336 339 331 322 323 325 330 343 360 352 329 327 338 335 325 326 327 325 327 327 323 329 336 330 324 320 317 316 316 316 317 318 319 319 318 318 318 318 318 319 319 319 319 319 319 318 319 319 318 318 318 318 318 318 317 318 318 318 318 318 317 317 316 316 315 313 312 312 312 311 311 311 310 309 309 309 308 308 307 307
328 328 330 327 328 334 332 328 328 324 320 324 332 336 340 348 347 333 328 335 331 325 328 328 325 327 323 318 325 332 331 335 332 319 313 315 315 316 318 317 317 317 317 317 317 318 319 319 319 319 319 318 319 319 318 318 318 318 318 318 318 317 318 318 318 318 318 318 318 318 317 315 314 313 313 312 311 311 311 310 309 309 308 308 308 307 306
325 325 327 326 328 329 325 322 321 319 324 341 348 337 330 335 344 340 333 333 328 324 329 328 324 325 323 320 324 327 329 333 328 317 313 314 314 316 317 316 316 316 316 317 317 318 318 318 319 319 318 318 319 318 318 318 318 318 318 318 318 317 317 318 318 318 318 318 318 318 318 316 314 313 313 312 311 311 310 310 309 309 309 308 308 307 306
330 329 328 330 334 331 325 326 330 325 327 342 347 335 326 333 340 340 338 336 326 321 328 332 327 324 323 323 325 327 330 334 328 318 313 312 314 316 316 317 318 316 315 317 317 317 318 318 318 318 318 318 319 318 318 318 317 317 318 318 318 318 318 318 318 318 318 318 318 318 318 317 314 313 312 312 311 311 310 310 309 309 309 309 308 308 307
331 333 332 333 335 332 324 326 333 330 324 330 334 331 329 334 337 335 336 339 335 325 324 328 327 325 325 325 324 324 328 334 332 323 316 312 314 315 315 316 317 315 316 317 317 317 318 318 317 318 317 318 319 318 318 317 317 318 318 318 318 318 318 318 318 318 318 318 318 319 318 317 316 314 312 311 311 311 310 309 309 309 309 309 309 309 308
327 326 328 324 322 327 328 324 325 325 322 326 330 328 327 331 334 331 328 331 333 325 320 322 325 326 327 327 326 325 326 329 326 317 312 313 314 314 315 316 316 316 316 316 315 316 317 317 317 317 317 318 318 318 317 317 317 318 318 318 318 318 318 318 318 318 318 318 318 318 318 318 317 315 313 311 311 311 310 309 309 309 309 309 309 309 309
324 327 337 333 322 325 330 325 325 324 322 323 326 326 326 327 329 330 327 325 324 322 321 323 326 328 326 325 328 328 326 329 327 316 310 312 314 313 315 317 317 316 315 314 315 316 316 316 317 316 317 318 318 318 317 317 317 318 318 318 318 318 318 318 318 317 318 317 317 318 318 318 317 316 314 312 311 311 310 309 309 309 309 309 309 309 309
324 328 339 337 328 327 326 323 325 326 324 324 325 325 325 324 325 329 327 324 326 331 329 326 327 329 326 324 326 327 326 327 325 314 309 311 313 313 316 316 315 314 314 314 315 315 315 317 316 316 317 318 317 317 317 317 317 318 317 318 318 318 318 318 317 317 317 316 317 317 317 318 317 316 315 313 311 311 311 310 309 309 310 310 310 310 310
327 329 329 327 327 331 333 331 330 328 325 326 327 327 327 326 325 326 324 320 321 325 327 328 328 329 327 324 323 324 325 326 321 313 310 312 313 314 315 315 314 314 314 314 315 315 316 316 316 316 317 317 317 317 317 317 317 318 318 318 318 318 318 317 317 317 316 317 317 317 317 318 318 317 316 315 313 313 312 311 310 310 311 311 312 311 311
327 331 330 327 325 329 337 338 335 334 331 329 329 329 332 333 334 335 334 329 321 317 317 319 323 329 330 325 321 323 326 323 315 312 312 312 313 314 315 314 313 313 314 314 314 315 316 316 316 316 317 317 317 317 316 317 318 318 318 318 317 317 317 317 316 317 317 317 317 317 318 318 318 317 317 316 314 314 313 312 311 310 310 311 311 311 311
330 331 334 332 325 326 334 334 335 337 335 333 334 332 332 337 340 341 341 335 329 329 323 313 315 330 334 321 318 325 326 316 311 312 313 313 314 315 315 314 313 313 313 314 313 314 316 316 315 316 317 317 317 316 317 318 318 318 318 318 317 317 317 317 317 317 317 317 317 317 318 318 317 317 317 317 316 315 314 314 312 311 310 310 310 310 310
327 326 333 333 326 326 332 334 336 334 326 326 333 332 331 334 333 331 338 337 329 332 335 319 310 318 322 313 314 324 323 313 311 314 314 313 314 315 314 314 313 313 314 314 314 315 316 315 315 316 317 317 316 316 317 317 318 318 318 317 317 317 317 317 317 317 316 317 317 317 318 318 318 317 317 316 317 316 315 314 313 312 311 310 310 310 310
323 323 328 329 325 326 328 327 328 328 321 320 327 328 326 326 320 317 328 335 323 320 329 325 315 312 312 310 312 317 316 313 313 314 314 314 314 314 314 314 314 314 315 315 315 315 315 314 315 316 316 317 316 316 316 317 318 318 317 317 317 317 316 317 317 316 317 317 317 317 318 318 317 317 317 315 315 316 316 315 314 313 313 312 311 310 310
322 320 321 323 323 326 327 322 322 326 323 320 323 324 320 316 314 313 316 319 313 310 315 318 315 311 310 310 310 310 310 312 313 313 312 313 313 313 314 315 315 315 315 315 315 315 315 314 314 316 316 317 316 316 316 317 318 317 317 317 317 317 317 317 317 316 316 316 316 316 316 316 317 317 317 316 315 314 314 315 315 315 315 314 313 312 311
321 319 319 321 320 322 325 323 321 324 322 317 320 323 315 309 312 314 312 311 311 310 309 310 311 310 309 309 310 310 310 311 311 311 311 311 312 314 314 314 314 314 314 314 315 315 315 314 314 316 317 317 316 316 317 317 318 317 317 317 316 316 317 317 316 316 315 314 314 314 314 315 316 316 316 316 315 314 313 313 313 313 314 315 314 312 312
321 320 320 320 318 318 321 320 316 317 317 315 315 316 313 311 314 317 318 318 315 311 309 310 309 309 309 309 309 309 308 309 309 309 310 311 313 313 313 314 314 314 314 314 315 315 315 314 314 316 317 317 316 316 317 317 318 317 316 316 316 316 316 317 317 316 314 313 313 313 314 315 315 315 315 315 315 314 314 313 312 312 313 314 314 313 312
319 318 318 319 318 318 317 316 316 317 318 315 313 312 313 317 320 322 325 323 317 313 313 312 309 308 308 309 308 307 307 307 307 308 310 312 312 313 313 313 313 314 314 314 315 315 314 314 315 316 317 317 316 316 317 317 317 316 316 316 316 315 316 316 316 315 314 313 313 314 315 314 314 314 314 314 314 314 313 313 313 312 312 313 313 313 313
318 317 318 319 319 319 319 320 320 322 321 318 316 316 317 318 320 322 323 321 320 320 315 308 305 307 307 307 308 309 308 308 309 309 310 312 312 312 312 312 313 313 313 314 315 315 315 315 315 316 317 317 316 316 317 317 316 316 316 316 315 315 315 315 315 314 313 313 313 314 315 314 313 313 313 313 313 313 313 313 312 312 312 313 312 312 313
320 319 319 319 319 319 320 321 321 321 321 319 317 317 318 318 319 320 321 323 326 323 313 304 304 307 307 308 310 310 309 309 310 310 310 311 312 312 312 312 311 312 312 313 314 314 314 315 315 316 317 317 316 316 317 317 316 316 316 315 314 314 314 314 315 314 313 313 314 314 314 314 313 313 313 312 312 312 312 312 312 312 312 312 312 312 313
320 320 318 318 319 318 319 320 320 321 322 320 317 318 319 319 319 320 321 322 322 317 313 312 312 311 310 310 311 310 309 309 309 309 310 311 312 312 312 312 311 312 312 313 313 313 314 315 316 317 317 317 316 317 317 316 316 316 316 315 315 315 315 315 314 314 313 313 314 314 314 314 313 313 312 311 311 311 311 311 311 311 311 311 312 313 313
319 319 317 317 318 317 317 319 319 320 321 321 321 321 320 317 316 316 315 315 314 311 310 313 313 311 310 311 311 310 309 309 309 310 310 310 312 313 312 312 312 311 312 312 313 313 314 314 316 317 317 317 316 317 317 317 316 316 316 315 315 315 315 315 314 314 313 313 313 313 313 314 314 312 310 309 310 311 311 311 311 311 311 312 312 313 313
316 317 316 316 317 317 316 317 317 319 320 320 320 322 319 313 311 310 308 309 314 315 312 311 311 311 311 311 311 310 309 312 314 313 310 310 312 313 312 312 312 312 312 313 312 313 313 314 315 317 317 316 316 317 317 317 317 316 316 315 315 315 315 315 314 313 313 313 314 314 314 314 314 312 310 309 310 311 311 311 311 311 311 312 313 313 313
311 313 312 312 312 313 314 315 314 315 317 317 317 319 316 310 307 308 308 309 314 316 312 310 312 312 311 311 311 310 309 311 312 311 309 310 312 312 311 312 312 312 313 313 313 313 314 314 315 315 316 316 317 317 317 317 317 316 316 316 315 315 316 315 315 314 313 314 314 314 314 315 314 312 310 310 310 310 311 311 310 310 311 312 313 313 313
308 311 312 311 310 309 311 312 311 312 315 317 317 317 314 309 307 308 309 309 311 312 311 310 311 310 310 310 311 310 310 310 310 309 310 311 311 311 311 311 312 312 312 313 314 315 315 314 314 315 315 315 316 317 317 317 317 316 316 316 315 316 316 315 314 314 314 314 314 313 314 314 314 312 310 310 310 310 311 310 310 311 312 313 313 313 312
307 308 309 309 308 307 307 308 308 309 311 313 313 312 311 309 308 309 310 309 310 310 310 310 310 309 310 310 310 310 310 310 310 310 310 310 310 311 311 311 312 312 311 312 314 314 315 314 315 315 314 315 316 316 316 317 316 316 316 316 315 316 315 315 314 314 314 314 314 313 313 314 313 312 310 310 310 311 310 310 312 313 313 313 312 312 312
306 306 306 306 306 306 306 307 308 308 309 310 309 309 309 309 309 309 309 309 309 309 309 309 310 310 310 310 310 310 310 310 310 310 310 310 310 311 311 311 312 312 311 312 314 314 314 314 314 314 314 314 315 316 316 316 316 316 316 316 316 315 315 315 314 314 314 314 313 313 313 314 313 311 310 310 310 311 311 311 312 313 312 312 312 311 311
309 307 306 306 306 306 306 307 308 308 308 309 308 308 308 308 308 308 309 309 309 309 310 310 310 310 310 309 309 310 310 311 310 310 310 310 310 310 310 311 312 312 312 313 313 313 314 314 314 314 314 314 315 315 316 316 316 316 315 315 315 315 315 315 314 314 314 314 313 313 313 313 313 311 311 311 311 311 311 312 313 313 312 312 311 311 311
312 308 306 306 306 306 307 307 307 308 308 308 307 307 308 307 307 308 309 309 310 310 310 310 310 310 310 309 309 309 311 311 311 310 310 310 310 310 310 312 312 312 312 312 312 312 313 313 313 314 314 314 314 315 316 316 316 316 315 315 315 315 315 315 314 314 314 313 313 313 313 313 312 311 311 311 311 311 312 312 313 312 312 311 311 311 311
311 307 307 307 307 306 306 307 307 308 308 308 308 308 308 307 307 307 308 308 309 309 310 310 310 309 310 310 310 310 311 311 311 311 310 310 309 309 310 312 312 312 312 312 311 312 312 312 313 314 314 314 314 315 316 315 315 315 315 315 315 315 315 314 314 314 313 313 313 313 313 312 312 311 311 311 312 311 312 312 313 312 311 311 311 311 311
310 308 308 308 307 307 308 308 308 308 309 309 309 309 308 308 307 307 307 308 308 308 308 309 310 310 311 311 311 311 312 312 311 311 311 310 310 309 310 311 312 312 312 312 312 311 311 312 312 313 314 314 315 315 315 315 315 315 314 315 315 314 314 314 314 314 313 313 313 313 313 312 311 311 312 311 311 311 312 312 312 312 311 311 310 310 310
310 309 309 309 308 308 309 309 308 308 309 309 309 309 308 308 308 308 307 307 307 307 307 308 310 312 313 312 312 312 312 311 311 311 311 311 311 310 310 311 311 312 312 312 312 312 311 312 312 312 313 314 315 315 315 315 315 314 314 314 314 313 313 313 313 313 314 314 313 313 312 312 312 312 311 311 311 312 312 312 312 312 311 310 310 310 310
309 309 310 310 309 310 310 310 309 309 309 309 309 308 308 308 308 308 307 307 307 307 307 308 310 312 313 313 312 311 311 311 311 311 310 310 311 311 311 311 311 311 312 312 312 312 312 311 311 312 312 313 313 314 314 314 314 313 313 312 311 312 312 313 313 314 314 314 313 313 312 312 311 311 311 311 311 312 312 312 312 311 311 310 309 309 309
309 309 309 309 309 310 310 310 310 309 309 309 308 308 307 307 307 307 307 307 307 308 308 309 311 312 313 312 311 310 309 309 309 309 309 310 311 311 311 311 311 311 311 311 312 312 312 311 311 311 311 312 313 312 312 312 312 312 311 310 311 311 312 312 313 313 313 313 312 311 311 311 311 311 311 311 312 312 312 312 312 311 310 310 309 309 308
309 309 309 308 309 309 309 309 310 309 309 309 308 308 307 307 307 307 306 307 307 308 309 310 312 312 312 311 309 308 307 307 307 307 309 310 310 311 311 311 311 311 311 311 311 312 312 312 312 311 311 312 312 312 311 311 311 310 310 310 311 310 310 310 311 311 312 311 310 310 310 310 311 311 311 311 311 312 312 312 311 311 310 309 309 308 308
309 309 308 308 308 308 308 309 309 308 309 310 311 310 308 308 308 307 307 307 307 308 310 311 312 311 310 309 308 307 307 308 307 307 307 308 309 309 309 310 311 311 310 310 311 311 312 312 312 312 312 312 312 312 311 310 310 310 310 310 310 310 309 309 309 309 309 309 309 310 311 311 311 311 311 310 311 311 312 311 311 310 309 309 308 307 306
307 308 308 307 307 307 307 308 308 307 308 309 310 309 308 308 308 307 307 306 306 307 309 311 312 311 309 308 307 307 307 308 308 308 306 306 306 307 307 308 310 310 310 310 310 311 311 311 311 312 312 312 311 311 311 310 310 311 311 311 310 309 309 308 308 308 309 310 311 311 311 311 311 311 310 310 310 311 311 311 310 309 309 308 307 305 304
306 306 306 306 306 306 306 306 305 305 306 307 307 307 308 307 306 306 305 305 305 306 308 309 310 311 310 309 308 307 307 307 308 307 306 305 306 306 306 306 307 309 310 310 310 310 311 311 311 311 312 311 311 311 311 311 311 311 311 310 309 309 308 308 308 309 310 311 311 311 310 310 311 310 310 310 310 310 310 310 309 308 308 307 305 304 302
305 305 304 304 305 305 305 304 304 304 305 305 305 306 306 305 304 304 305 305 304 305 306 307 308 309 310 309 308 308 307 307 307 306 306 306 305 305 305 305 306 307 308 310 310 310 310 310 310 310 311 311 310 310 310 310 310 310 309 309 308 308 308 308 309 309 310 311 311 311 310 311 310 310 310 310 309 309 309 309 308 307 306 305 303 302 301
303 303 303 303 303 303 303 303 303 303 303 304 304 304 304 304 303 303 304 304 303 304 305 306 306 307 308 308 308 308 307 307 307 307 306 306 306 305 305 305 305 305 306 308 309 310 310 309 309 310 310 310 310 309 309 309 309 309 308 308 308 308 308 309 309 309 311 311 311 310 310 310 310 309 309 309 309 308 308 308 307 305 304 303 302 301 301
302 302 302 302 302 302 302 303 303 303 302 302 303 302 302 302 302 302 302 303 303 303 304 304 305 306 306 308 308 308 307 307 307 307 306 306 306 306 305 305 305 305 305 306 307 308 309 309 309 309 309 309 309 309 309 308 309 308 308 308 308 309 309 309 309 309 310 311 311 311 310 310 310 309 309 308 308 308 307 306 305 304 303 302 301 300 300
Wind_Speed
4 2 3 3 1 1 3 5 5 5 6 6 6 5 5 7 5 6 6 6 6 8 7 7 9 8 7 7 7 6 5 6 6 5 5 6 7 7 6 5 6 5 4 5 5 5 5 3 1 1 1 1 2 2 3 4 5 6 8 8 7 6 5 4 4 4 4 5 7 9 12 14 15 16 17 17 17 16 15 15 14 13 13 13 14 15 16
5 3 3 3 3 1 2 4 6 5 7 8 6 4 5 6 5 7 4 4 8 10 8 9 8 6 6 5 4 5 5 6 6 6 6 7 7 7 7 6 6 5 5 6 6 6 7 6 3 2 2 2 2 2 2 4 5 5 6 6 5 5 5 4 3 3 3 4 7 9 11 12 14 15 16 16 16 17 17 16 16 15 14 14 14 15 16
5 5 5 4 0 2 5 6 3 2 3 4 3 2 2 3 6 5 2 3 9 8 7 9 6 2 3 5 6 6 6 6 5 6 7 7 7 7 7 6 6 4 5 6 7 8 9 9 6 4 4 3 2 2 2 3 4 4 4 4 3 3 3 2 2 2 3 5 7 9 11 12 14 15 15 15 16 17 18 17 17 16 15 14 14 14 15
5 4 5 6 4 3 2 8 6 4 4 3 3 3 5 6 4 2 2 3 8 6 3 5 5 3 3 6 7 6 6 6 5 6 8 8 8 7 7 6 6 5 5 6 9 11 12 11 9 7 6 4 4 3 2 3 3 3 3 2 2 1 1 1 2 3 5 7 8 10 11 12 14 14 14 14 15 17 18 18 17 16 16 15 13 13 13
5 5 4 4 4 6 4 8 7 8 6 4 4 4 6 7 7 6 4 6 7 4 2 2 5 5 5 7 7 6 7 7 6 7 8 8 8 7 6 7 6 6 7 9 12 13 13 12 11 9 7 6 6 5 4 3 3 3 3 3 2 2 3 4 5 5 7 8 10 11 12 12 13 13 13 14 15 16 17 17 17 17 17 15 13 12 12
4 7 5 3 3 3 5 6 5 8 7 7 7 7 8 8 6 4 5 6 5 4 3 5 7 7 6 5 6 6 6 6 6 7 8 8 8 7 7 7 7 7 10 12 13 14 13 13 11 9 9 8 7 6 6 6 5 5 5 5 4 4 5 6 7 7 9 10 11 12 12 12 12 12 13 14 15 16 16 16 16 17 17 16 14 13 12
2 3 5 3 4 6 8 6 3 5 6 7 8 8 8 9 9 8 8 9 8 6 7 8 7 7 5 4 6 7 6 6 7 7 8 9 8 7 7 7 7 10 13 14 15 15 15 14 13 11 11 10 9 9 9 8 8 7 7 7 7 6 6 7 8 9 10 11 11 11 11 11 12 13 14 14 14 15 15 15 16 16 16 16 15 14 13
1 1 4 1 6 8 8 6 2 2 2 4 2 7 9 8 11 10 10 12 10 7 7 7 5 4 5 5 6 8 8 8 8 8 9 9 8 9 9 10 11 15 17 18 17 17 16 15 14 13 12 12 11 11 11 11 11 11 10 10 10 9 9 10 10 11 11 11 12 11 11 12 13 14 15 15 15 14 15 15 16 16 16 17 16 15 15
1 2 1 3 4 7 8 5 1 4 4 5 5 3 7 8 9 10 10 11 10 7 7 6 3 2 4 6 7 8 8 8 9 10 10 10 9 11 14 16 17 18 19 20 19 18 17 17 16 14 13 12 13 14 13 13 13 13 13 14 14 14 14 14 13 13 13 13 13 13 12 13 14 15 16 16 15 14 15 16 17 17 18 17 17 17 16
2 4 1 3 3 4 6 6 5 4 4 6 6 2 5 8 7 10 10 9 9 8 6 3 1 2 3 4 8 7 6 7 8 8 11 12 13 15 17 18 18 19 20 20 19 19 19 19 18 17 15 14 14 15 16 16 16 15 16 17 17 18 18 18 17 16 15 15 15 15 15 15 16 16 16 16 15 15 16 18 18 17 17 17 17 17 17
2 5 1 2 2 5 7 8 7 5 3 5 4 4 6 8 6 7 9 9 9 7 6 5 5 4 1 5 8 7 6 6 7 8 9 12 14 17 18 18 19 20 20 19 19 18 19 21 21 19 17 16 16 17 18 18 17 17 18 19 20 20 21 21 20 19 18 18 18 18 18 18 17 17 16 16 15 16 17 18 18 17 16 17 17 17 16
3 4 2 3 4 5 7 7 6 4 3 5 7 4 7 8 5 7 9 9 9 6 6 5 6 6 6 6 7 7 6 5 7 9 9 11 15 18 20 21 21 21 19 18 18 20 21 23 22 20 19 17 16 18 19 18 19 19 19 19 19 20 20 20 20 20 19 19 20 20 20 20 19 17 16 16 15 16 17 18 17 16 15 16 17 16 15
4 4 3 3 4 6 7 7 6 4 3 5 4 4 8 5 4 6 9 9 7 7 8 6 6 7 9 6 4 4 3 3 6 11 14 15 16 18 20 21 20 20 19 19 20 22 23 23 23 21 19 16 17 19 18 18 21 22 20 18 16 16 16 16 16 17 17 18 19 20 21 21 20 18 17 16 16 16 16 17 17 16 15 15 16 16 15
3 3 2 3 5 6 5 4 3 3 3 1 4 7 5 4 5 6 7 8 6 7 8 8 7 8 7 4 4 6 4 4 6 10 13 14 15 18 19 19 18 18 18 19 20 22 23 23 24 22 18 17 18 18 18 20 22 21 17 15 13 12 13 13 14 14 14 14 16 18 20 21 21 20 18 17 17 16 16 16 16 16 15 15 15 15 15
3 2 2 0 5 6 5 7 4 2 4 5 6 5 3 4 5 5 6 7 6 7 8 8 9 9 7 5 7 7 6 6 7 9 11 12 15 18 19 20 20 18 17 18 20 22 23 23 23 21 18 18 19 19 19 21 20 17 13 11 10 10 11 12 14 14 14 13 14 15 17 20 22 21 20 19 18 18 17 17 17 17 16 15 15 16 15
4 3 3 5 5 6 7 6 5 6 7 5 5 4 3 4 4 4 5 7 7 8 8 8 9 9 8 8 8 7 6 7 8 9 11 13 16 19 21 23 22 19 18 20 21 22 23 23 22 21 19 19 20 20 21 21 18 14 13 11 10 10 10 12 14 14 13 12 12 13 15 17 20 22 22 21 19 18 18 18 18 18 18 16 16 16 17
4 5 7 7 4 4 6 5 5 6 6 3 5 5 4 4 4 5 4 5 7 9 9 8 7 7 8 9 8 7 7 8 8 10 13 15 18 20 21 23 21 19 20 22 21 22 23 23 22 21 20 20 21 21 21 19 16 15 14 12 11 11 11 11 12 11 11 10 11 12 13 14 17 20 22 22 20 19 20 20 20 20 19 19 18 18 18
3 4 5 5 5 6 7 7 7 7 7 4 4 5 6 5 5 5 3 3 4 6 7 6 6 7 8 8 8 8 8 7 8 10 13 15 18 19 19 21 22 21 21 20 20 21 24 24 23 22 21 21 22 22 21 18 16 16 15 14 13 12 11 11 10 10 10 10 10 11 12 13 14 17 20 22 22 21 21 21 21 21 21 20 20 19 20
2 4 5 5 7 8 7 6 7 8 8 6 5 5 7 6 5 6 5 3 2 5 6 7 8 9 8 7 8 8 7 8 9 9 11 15 19 20 21 24 24 20 19 19 20 21 24 26 25 23 22 23 23 22 20 18 17 16 15 14 13 12 11 11 9 9 10 10 10 10 11 12 13 15 17 20 22 22 22 22 22 21 21 22 21 21 21
3 6 8 7 7 9 7 6 6 7 8 7 6 7 7 6 5 5 6 5 5 5 6 8 9 9 8 8 9 8 7 7 8 8 11 16 19 20 23 24 21 18 19 21 22 23 26 28 27 25 24 25 23 21 19 18 17 15 14 14 13 12 10 10 9 10 10 10 10 11 11 13 14 14 15 17 20 22 24 24 23 22 22 22 20 18 20
3 6 8 7 6 8 7 5 6 8 8 7 7 7 6 6 7 7 6 6 7 7 7 7 8 8 9 8 8 8 7 6 7 9 14 17 19 21 23 22 20 20 22 23 25 26 28 30 29 26 26 25 22 20 19 18 16 15 15 14 12 10 10 10 10 10 10 10 10 10 11 12 13 14 14 15 17 20 22 23 24 23 23 23 19 14 16
4 6 6 4 3 5 7 6 6 8 7 6 6 7 6 6 8 7 7 7 7 8 10 8 7 7 9 8 7 7 7 8 10 13 15 16 17 20 22 20 18 20 23 25 26 27 30 31 28 25 26 24 21 19 18 17 17 16 16 14 12 11 10 10 10 9 9 8 8 9 10 12 12 13 13 13 14 16 18 20 22 23 24 26 24 19 17
6 8 8 5 3 4 7 7 7 7 4 6 7 7 7 8 8 8 7 7 6 7 9 10 10 9 8 9 8 7 8 11 15 16 16 16 17 20 20 17 17 20 23 25 25 27 30 31 27 25 25 23 20 19 18 17 18 17 15 13 12 11 10 10 9 7 6 7 8 9 10 11 12 12 12 12 12 13 13 15 17 20 23 26 27 26 24
6 7 7 6 5 6 8 6 6 6 3 5 7 8 8 8 7 7 7 7 7 7 7 8 12 13 10 10 10 8 8 14 17 18 18 19 19 20 19 16 17 20 23 24 25 29 32 31 27 25 24 22 20 19 18 18 19 17 15 14 13 12 10 9 8 7 7 7 8 9 9 10 11 11 12 13 13 12 12 12 13 15 18 22 25 27 28
7 8 6 5 6 8 8 5 5 7 5 6 6 7 8 10 9 7 8 7 8 9 7 7 11 14 13 13 13 11 11 15 18 18 17 18 18 19 18 18 20 22 23 25 26 28 30 29 26 25 24 22 20 19 19 20 19 17 15 15 14 12 11 10 9 8 7 7 8 8 9 9 9 10 11 12 13 13 14 14 13 13 14 16 18 21 24
9 8 5 3 4 6 5 5 7 9 9 8 6 7 11 13 10 8 8 8 9 11 9 8 10 12 11 13 15 14 13 16 17 16 14 15 16 17 17 19 22 22 23 23 23 24 26 27 25 25 25 23 21 19 20 20 20 18 16 15 14 13 13 12 11 9 8 8 9 9 8 8 8 9 10 11 12 13 14 15 15 16 15 14 15 16 17
7 5 2 5 8 7 6 6 8 9 9 6 5 9 14 14 9 7 8 10 12 13 12 12 13 12 11 13 15 14 13 14 14 13 13 15 17 19 20 22 22 21 20 20 20 22 23 24 25 26 26 24 22 20 20 20 20 19 17 15 14 14 14 13 12 10 8 8 9 9 9 8 8 8 9 9 10 11 13 14 15 17 18 17 16 16 17
6 5 5 7 10 10 7 7 7 7 9 9 9 10 11 11 9 7 8 10 11 12 13 14 14 12 12 13 13 11 11 12 12 13 15 18 20 23 23 22 21 20 19 19 20 21 20 21 24 28 28 26 23 21 20 20 20 19 18 16 15 15 15 14 13 11 9 9 9 8 8 7 6 6 7 8 9 11 12 13 14 16 18 18 18 18 18
9 8 7 8 9 8 7 7 7 7 9 11 10 8 7 7 7 6 7 9 9 7 9 12 12 11 12 13 11 9 9 10 11 14 18 20 22 23 22 20 19 18 18 18 20 20 20 21 25 29 31 29 24 21 21 21 21 20 19 17 16 16 15 15 14 12 11 9 8 7 6 5 5 6 7 8 9 10 11 13 14 15 17 18 18 18 18
8 8 6 6 6 6 6 7 9 9 8 8 8 6 5 6 6 7 8 8 6 6 8 10 9 8 10 12 11 11 11 11 13 16 19 20 20 20 19 17 14 12 13 17 21 21 22 24 27 32 34 31 25 22 22 23 22 21 19 19 18 17 15 15 14 14 13 11 9 8 6 5 6 6 7 8 9 10 11 12 13 14 16 17 17 18 18
7 8 8 8 8 7 8 8 7 8 8 7 6 6 6 5 6 8 9 7 5 6 8 8 6 7 9 9 9 10 11 12 14 15 16 16 17 17 16 14 12 13 16 20 22 23 23 26 30 34 35 32 26 24 24 24 23 21 20 20 19 17 16 16 16 16 15 13 11 9 8 6 6 7 7 9 10 10 11 12 13 13 15 15 17 18 18
8 10 11 10 10 11 11 9 7 8 9 7 6 6 6 7 8 9 8 6 5 5 5 5 6 8 9 9 9 9 9 10 12 13 14 15 15 15 16 15 16 18 21 23 25 25 24 26 30 34 35 33 28 25 25 25 23 22 22 22 21 19 18 18 19 18 16 14 13 11 10 8 8 8 9 10 10 11 11 12 13 14 14 15 17 17 17
8 10 10 10 10 11 12 10 8 8 9 7 7 7 7 6 6 6 7 6 5 4 5 6 8 9 8 9 9 9 8 8 9 11 14 16 16 16 17 16 16 18 21 23 25 26 25 27 31 35 36 34 29 27 27 27 25 24 24 24 23 22 21 21 21 20 18 16 15 13 12 11 10 10 10 11 11 11 11 12 13 14 14 15 16 16 16
8 9 10 11 10 11 12 11 9 8 7 7 7 6 6 6 6 7 8 9 7 6 7 7 6 6 5 7 9 9 7 6 6 9 13 16 18 18 18 17 17 17 19 21 23 25 26 29 32 34 35 34 30 28 28 28 27 25 25 25 25 24 23 23 23 22 20 19 17 15 14 13 13 12 12 12 11 11 11 12 13 13 14 14 14 15 16
10 10 11 12 11 12 13 12 11 10 9 8 7 6 6 8 10 10 10 10 9 8 7 6 4 2 1 3 5 7 6 6 7 10 15 18 18 18 19 18 17 17 18 21 23 24 26 30 32 33 33 33 31 31 30 29 28 27 26 27 27 25 24 24 24 23 23 21 19 17 17 16 15 13 13 12 11 11 11 12 13 13 13 13 14 15 17
10 8 8 10 11 13 13 12 11 10 9 8 8 7 7 9 10 9 8 7 7 7 6 6 5 4 2 1 2 4 6 7 8 10 12 14 15 17 17 17 16 16 17 19 22 24 25 27 30 32 33 33 32 31 29 27 28 29 28 28 28 27 26 26 25 23 23 22 20 19 18 17 15 14 13 12 11 11 11 12 13 12 11 12 14 16 17
11 8 7 8 11 12 12 12 12 10 8 6 4 2 2 3 3 2 2 1 1 3 4 4 3 2 0 1 3 4 6 7 7 8 9 10 12 13 14 14 15 15 13 15 19 24 24 25 26 28 31 32 32 30 28 27 27 29 30 30 30 29 28 27 25 24 24 23 22 20 19 17 16 15 14 13 11 10 11 12 12 11 10 11 14 15 16
12 12 9 9 9 8 7 7 7 6 4 3 5 8 7 6 5 5 5 6 6 4 2 1 2 4 5 6 8 9 10 11 10 11 12 13 12 11 11 13 14 14 14 17 22 25 25 24 24 24 27 31 32 30 26 24 25 27 29 31 31 29 28 27 26 24 25 24 23 21 19 18 17 16 14 12 11 11 11 12 11 9 10 11 13 14 14
10 12 12 12 11 11 12 14 16 17 14 11 10 11 11 10 10 10 10 11 12 10 9 8 9 9 9 9 10 11 13 14 14 15 16 16 14 12 13 14 16 17 18 21 24 25 25 25 23 22 24 29 31 26 21 22 26 28 28 30 30 29 28 27 26 25 25 25 23 21 19 18 18 16 13 12 11 11 11 11 10 9 9 10 11 12 13
5 7 9 11 12 13 14 15 16 17 18 16 14 14 14 14 13 12 12 13 14 13 12 11 10 9 9 9 9 10 13 15 16 16 16 16 15 14 13 15 18 20 22 24 25 25 25 24 22 21 23 27 29 25 20 22 29 31 30 30 29 28 27 27 26 25 25 24 22 20 19 18 17 15 13 11 10 10 10 10 9 9 9 10 10 11 11
2 4 7 9 10 11 12 13 13 16 18 19 18 17 17 16 14 12 12 14 15 14 14 12 10 9 10 10 10 12 14 15 17 17 16 14 14 12 9 12 19 23 25 26 27 26 25 23 20 21 22 24 26 23 19 20 27 32 31 29 28 27 27 27 26 25 25 24 21 19 18 18 17 14 12 11 10 10 10 9 9 8 8 9 9 10 10
3 4 5 6 7 9 10 12 12 13 14 16 17 18 19 19 19 17 16 17 18 18 17 16 13 11 11 11 12 14 15 16 17 19 17 15 13 10 8 12 21 26 26 27 28 27 25 23 20 20 22 23 24 22 19 19 26 31 31 29 29 28 28 27 26 25 24 21 19 18 17 17 15 13 12 11 10 10 10 9 9 8 8 8 8 8 9
8 7 6 6 6 7 8 9 8 8 9 11 13 14 17 20 21 20 19 18 19 19 18 17 15 12 12 12 13 13 15 17 18 19 19 19 18 13 10 13 22 26 27 28 28 27 26 23 21 21 22 22 23 23 21 23 27 30 31 31 30 28 27 26 25 23 21 18 17 17 17 15 14 13 11 11 11 10 9 9 8 8 8 7 7 7 8
13 10 9 10 9 7 5 5 4 4 5 8 10 12 13 15 18 19 19 19 19 19 18 16 13 12 11 12 11 12 13 15 17 17 16 16 18 18 17 19 23 25 26 26 27 27 27 24 22 21 21 22 23 22 21 23 27 29 28 25 20 19 22 24 24 21 20 19 18 17 15 14 13 12 11 11 10 9 8 8 8 8 7 7 7 7 8
16 14 13 12 10 8 8 8 5 3 2 3 5 7 7 8 11 14 16 18 20 20 17 14 12 10 9 9 9 10 11 13 14 14 11 8 8 14 20 23 24 24 25 25 25 25 25 24 22 20 18 19 21 21 20 20 22 24 22 18 15 16 20 22 21 20 18 16 15 14 13 13 11 10 9 9 8 7 7 7 8 7 8 8 8 8 9
15 16 16 15 13 13 14 14 11 8 7 5 5 5 5 5 6 8 11 15 18 17 15 12 10 7 7 7 7 9 11 13 14 15 13 10 10 15 20 22 22 23 24 24 23 23 23 24 23 21 19 19 21 23 22 20 20 19 17 14 12 10 9 9 10 10 10 11 11 12 11 9 8 7 6 6 6 6 7 7 8 8 8 8 8 8 9
15 15 16 16 16 17 19 18 14 12 10 7 6 10 14 15 14 15 16 17 17 15 12 10 7 6 5 5 6 8 11 12 13 15 16 15 16 19 21 20 20 21 21 22 22 22 22 22 23 23 22 22 21 20 19 18 17 16 13 10 9 7 5 6 8 10 11 12 11 10 8 7 6 6 5 5 5 6 7 8 9 9 8 7 7 8 10
16 15 16 17 16 17 18 17 12 10 10 10 11 15 20 20 18 18 18 18 17 15 12 10 9 8 8 7 6 7 8 8 9 12 17 19 19 20 20 20 20 20 20 20 20 21 21 22 22 23 22 21 19 16 14 14 14 14 14 14 13 10 10 11 12 12 13 13 11 9 8 7 7 6 5 5 5 6 8 9 10 9 7 5 7 9 11
18 17 18 17 15 13 13 12 8 8 11 14 15 18 20 17 15 16 18 18 16 14 13 12 11 12 11 9 8 7 7 7 8 11 15 19 20 20 21 21 21 20 20 19 18 18 19 21 21 21 22 20 15 12 11 13 16 17 16 15 13 12 12 12 12 12 14 14 11 9 8 8 7 5 5 5 6 8 10 10 9 6 4 5 8 10 12
16 15 15 15 14 12 12 10 9 11 14 15 15 17 17 14 12 14 18 18 16 15 16 16 16 16 15 13 11 9 8 9 10 12 14 16 18 20 21 22 22 21 21 20 19 17 17 17 18 18 18 14 10 11 13 14 15 15 12 9 9 11 12 13 13 14 14 13 11 9 8 7 6 5 5 5 7 9 9 8 6 4 4 6 9 11 12
13 13 14 15 15 15 14 13 13 14 16 16 16 16 16 13 12 15 18 18 16 15 16 17 18 19 19 17 14 11 10 10 12 13 14 15 18 19 21 21 22 22 21 21 21 19 18 17 17 16 15 12 10 11 12 11 10 9 9 10 11 13 13 14 14 16 15 14 11 10 8 7 6 5 4 5 6 7 7 6 4 2 4 7 9 10 11
15 16 16 16 17 17 17 17 16 16 15 14 14 14 14 13 13 15 17 18 17 15 15 15 16 18 20 20 17 14 13 13 14 15 16 17 19 20 21 22 23 23 22 22 22 21 20 18 16 15 15 15 15 15 15 14 13 12 13 14 15 14 14 15 16 17 16 14 11 9 8 7 5 4 3 4 4 5 6 4 2 2 5 7 8 8 9
Wind_Direction
271 226 261 272 193 216 191 182 206 198 165 163 179 204 197 155 158 248 238 174 205 249 251 235 234 230 231 239 240 245 257 260 252 247 255 265 270 268 263 256 251 241 243 264 268 261 266 269 238 227 246 243 258 286 305 314 323 335 340 343 356 9 11 7 348 325 310 287 268 256 251 252 254 255 256 257 257 256 254 257 264 269 274 278 282 287 294
321 348 325 263 192 208 251 222 213 193 184 192 202 225 208 182 214 238 209 209 249 251 238 233 226 213 226 250 271 275 267 259 253 242 239 250 258 256 252 251 251 237 232 245 249 250 252 242 233 260 264 247 252 259 286 316 324 336 339 338 351 8 11 9 358 335 308 277 264 257 256 260 261 261 261 259 257 255 255 259 263 266 271 277 283 290 297
310 332 0 355 59 198 247 271 269 161 179 213 235 258 205 211 259 253 191 283 280 259 227 234 241 226 248 272 275 264 252 247 247 242 240 246 251 252 251 254 257 253 245 245 241 236 234 227 222 239 251 253 262 273 313 336 330 328 328 327 337 352 355 353 328 298 281 272 269 266 266 268 268 268 267 262 258 257 258 260 261 262 267 273 282 291 294
284 313 6 350 4 76 271 287 276 205 177 196 219 217 194 191 199 174 102 281 268 260 247 255 261 259 256 260 260 262 261 245 224 229 240 241 242 244 246 248 252 252 244 236 228 224 223 221 220 225 230 235 248 261 296 330 324 312 306 314 324 306 299 282 260 264 269 272 274 273 272 271 271 272 269 261 258 258 261 262 261 260 263 269 278 285 286
263 292 352 346 16 35 324 275 235 197 195 222 244 256 234 204 159 138 188 228 239 264 306 252 245 239 238 246 242 242 251 242 220 225 236 239 241 242 242 243 241 236 233 230 225 222 223 227 234 236 229 232 248 257 264 277 288 287 279 273 261 247 248 253 257 264 269 271 274 274 273 274 272 267 260 257 258 261 265 267 262 259 261 265 272 277 279
260 283 329 347 354 337 263 240 184 177 195 206 218 239 234 208 180 189 238 246 253 269 238 207 215 219 222 241 247 238 234 229 224 230 236 239 242 245 244 242 239 237 237 236 231 228 232 242 249 249 242 245 254 259 260 267 276 276 264 252 246 242 242 248 256 263 266 268 271 273 273 271 265 258 255 257 262 265 268 267 260 257 259 262 267 273 277
238 297 12 2 275 245 243 255 230 203 193 177 201 250 253 217 212 236 261 262 250 239 225 216 216 228 250 286 281 261 239 216 216 231 243 241 236 239 243 241 238 238 236 237 237 235 238 247 252 250 252 258 261 262 265 271 276 276 268 262 258 252 249 252 255 258 261 264 268 271 271 266 260 256 256 260 265 267 266 261 257 257 259 262 265 270 277
235 3 68 174 248 261 278 297 281 187 140 126 184 285 281 230 207 215 238 249 245 234 238 243 244 267 294 308 277 250 232 216 213 222 234 233 223 223 225 221 225 231 230 232 237 238 239 245 249 250 256 262 264 266 270 271 273 273 270 268 267 262 259 260 259 259 261 264 267 271 271 265 262 260 260 263 267 267 263 258 256 256 258 262 265 270 276
163 133 185 249 299 313 308 310 233 175 167 158 164 254 276 243 200 190 216 243 246 234 238 254 270 315 348 335 289 255 228 214 212 218 229 229 223 225 225 224 229 233 232 233 236 239 241 245 248 251 256 259 262 266 270 270 269 268 265 267 270 269 266 266 266 265 264 265 267 268 266 263 263 264 265 266 268 265 260 257 255 256 260 264 267 271 277
109 101 318 317 352 314 274 260 257 240 196 175 153 127 292 270 220 192 203 227 235 226 223 232 206 61 28 309 281 268 240 219 211 220 236 236 232 233 231 229 233 236 236 237 239 240 242 246 251 253 254 256 259 263 268 270 269 265 263 266 271 272 273 274 273 269 265 264 265 264 262 262 264 267 267 267 266 263 260 259 258 260 265 268 269 273 279
115 116 150 229 212 248 247 245 268 279 200 157 101 42 309 275 234 190 195 221 230 213 199 183 137 115 190 262 265 266 255 232 210 211 231 236 236 237 235 232 235 240 241 241 242 243 243 248 254 255 253 254 256 260 266 269 269 267 267 272 276 278 279 281 280 275 269 265 263 262 262 262 264 267 268 267 266 262 260 259 261 264 267 268 270 274 278
159 136 175 225 228 247 243 236 256 263 155 101 62 5 279 262 233 183 183 217 231 191 165 160 143 160 211 234 247 256 257 243 222 214 220 226 227 231 234 234 237 242 244 243 243 243 244 250 256 257 254 253 254 260 266 269 269 270 275 281 286 288 288 287 285 282 276 269 266 264 263 264 264 266 267 267 264 261 259 259 260 262 265 266 270 274 277
155 156 210 267 264 251 241 233 226 196 125 74 71 233 238 234 221 193 185 210 217 165 154 168 181 205 216 214 240 278 281 244 229 224 226 229 229 230 234 237 239 243 246 245 246 248 249 252 256 256 253 252 255 261 266 268 271 276 283 288 291 292 293 291 289 288 283 275 270 267 266 265 264 263 265 264 262 260 259 257 256 258 261 263 269 275 279
144 161 195 295 289 257 210 178 188 167 137 159 216 226 225 198 200 202 202 214 199 164 173 194 208 231 240 235 267 285 272 239 236 232 228 231 236 238 239 241 242 245 247 247 248 251 252 253 254 253 251 252 256 262 265 269 276 286 292 290 287 287 289 288 287 288 289 283 277 271 268 265 261 260 262 262 261 259 256 253 252 254 258 262 269 275 279
132 97 112 269 280 256 166 123 105 139 183 204 215 229 242 215 199 192 209 222 200 178 196 213 223 244 262 263 261 268 264 252 253 247 234 228 235 240 240 241 241 242 245 248 249 252 253 252 253 252 249 249 254 259 264 271 282 291 292 285 281 282 288 291 288 286 287 290 289 281 275 268 262 260 260 260 259 256 251 248 248 251 254 260 267 273 275
131 130 199 210 229 227 191 157 159 201 212 197 167 177 222 229 212 191 209 230 211 189 201 217 224 239 256 258 254 259 260 249 244 248 243 234 235 239 239 241 242 241 243 248 251 253 253 251 252 252 248 247 251 256 262 271 280 284 280 277 276 280 289 296 294 288 286 290 295 294 287 275 266 261 259 258 258 254 249 246 246 249 253 257 262 269 273
166 186 217 226 228 224 224 226 220 227 248 231 157 177 223 236 210 187 195 227 216 199 202 213 218 229 242 245 245 244 248 245 235 238 241 236 235 239 241 243 244 242 244 247 250 252 252 251 251 252 249 246 247 252 260 268 272 274 276 276 274 278 288 295 298 299 296 294 296 299 296 284 273 266 261 256 255 254 249 244 243 246 253 257 259 265 271
253 251 243 242 254 252 242 244 244 247 262 253 178 195 239 245 216 200 215 251 224 197 196 205 219 231 234 239 246 243 244 251 243 238 244 246 243 242 244 246 246 242 242 244 245 249 253 252 249 249 247 243 243 249 258 264 268 272 275 275 275 278 283 287 294 303 302 299 299 300 299 293 284 275 265 257 255 256 252 246 242 245 252 257 259 262 268
261 276 267 242 246 251 243 247 263 264 256 240 201 206 237 237 210 208 233 250 197 174 182 201 227 242 234 232 249 251 244 249 249 240 242 248 246 243 243 246 246 240 235 236 238 243 250 252 249 245 241 239 240 247 255 261 266 268 268 269 274 276 276 279 287 294 297 299 301 301 302 299 293 284 272 262 255 253 252 246 241 242 250 257 259 261 267
196 250 262 256 256 262 256 245 255 264 261 250 231 224 235 238 225 220 223 210 183 179 194 204 221 244 243 227 239 253 248 245 250 245 240 244 247 248 247 248 245 236 230 231 235 239 245 250 249 241 236 236 238 243 251 258 259 257 256 261 268 271 271 276 284 289 293 299 300 300 302 303 299 293 283 270 261 257 256 251 243 239 246 255 258 263 271
279 279 280 290 302 298 289 265 244 246 251 251 252 256 251 241 243 250 246 227 204 203 215 206 201 233 250 237 229 245 254 251 248 245 244 245 248 252 252 250 245 238 233 233 235 238 243 248 247 238 232 232 235 240 248 252 246 244 250 258 261 263 270 279 286 291 294 298 300 301 303 304 304 300 293 283 275 271 268 262 254 248 248 253 257 262 271
281 267 260 271 299 292 285 277 256 247 236 219 240 269 266 237 233 236 242 246 234 225 229 216 189 217 252 250 231 235 250 253 249 248 250 251 253 257 259 256 251 245 241 239 238 238 242 246 245 236 230 229 232 238 243 241 237 240 249 254 255 261 271 280 286 290 293 296 300 303 305 305 306 306 302 296 288 284 281 274 266 258 253 254 258 259 261
240 244 242 227 191 239 261 260 256 259 232 188 211 237 236 229 227 213 211 231 241 239 238 220 198 208 244 248 232 231 247 254 254 255 255 254 256 261 262 258 252 250 248 244 241 240 243 244 242 234 229 228 232 237 236 232 235 241 245 248 252 259 269 277 281 282 286 294 300 303 305 307 308 307 307 307 302 297 294 288 279 269 260 258 259 260 260
241 253 242 207 190 237 259 256 262 273 244 193 224 242 237 238 239 215 204 220 230 236 247 231 214 215 232 241 234 229 246 257 257 258 259 258 259 263 264 257 251 250 248 245 244 244 245 244 239 232 227 227 232 235 232 231 235 237 239 244 250 257 266 272 270 265 270 284 294 299 304 307 307 305 304 305 307 310 310 305 295 285 275 268 265 264 265
243 259 244 200 204 244 266 283 288 280 244 209 230 256 254 251 245 221 210 222 230 229 238 247 237 228 229 238 240 232 239 254 259 259 263 265 263 260 257 253 250 250 251 251 251 250 247 244 238 229 224 227 233 234 231 232 233 232 235 240 246 255 262 262 255 251 260 276 286 292 297 302 303 302 299 296 299 306 313 313 309 303 294 286 280 274 271
239 259 277 271 247 253 276 300 291 275 255 226 219 248 257 256 250 232 226 238 247 243 237 247 258 250 238 241 247 244 242 252 260 259 257 258 256 253 251 253 254 254 255 257 258 256 251 245 237 227 222 226 233 233 230 230 231 232 235 239 244 252 255 252 247 246 254 271 280 283 287 291 294 296 297 296 295 297 301 306 308 309 308 306 300 292 286
242 231 254 293 285 270 253 249 258 272 279 265 238 250 260 266 274 280 274 270 269 266 257 254 260 266 261 255 254 252 247 253 262 264 257 253 256 258 260 262 263 261 260 261 262 261 256 247 235 224 222 228 233 231 228 228 230 232 235 237 242 248 246 242 240 240 250 268 278 279 280 282 286 291 297 301 300 296 294 295 298 302 308 312 312 307 302
266 227 204 243 268 273 267 259 263 279 286 276 258 250 261 278 293 294 285 278 273 270 267 264 260 260 263 262 256 250 251 256 261 265 265 266 269 271 271 269 269 268 266 265 265 264 257 246 233 224 223 230 233 229 225 227 229 231 232 234 241 244 239 235 233 233 245 263 271 272 273 276 283 294 299 303 304 303 300 296 294 296 303 312 315 311 307
267 258 242 242 257 272 290 296 289 278 272 272 271 263 260 275 284 275 264 264 267 271 276 275 268 256 255 259 255 248 252 258 259 263 269 274 277 280 279 276 274 274 271 267 265 261 252 241 230 224 226 232 232 227 225 226 228 229 231 234 238 236 231 228 228 230 241 252 253 252 257 267 280 290 296 301 305 306 302 299 298 297 301 309 314 311 310
265 274 282 281 277 277 278 277 278 276 273 274 281 279 258 242 248 260 260 256 257 261 263 267 271 261 251 254 256 254 255 261 266 270 274 279 282 284 282 278 273 270 263 260 261 256 246 236 227 224 228 233 231 225 225 226 227 229 232 234 233 230 227 227 228 230 236 239 233 233 243 259 274 281 289 298 302 301 299 298 299 300 303 308 310 307 309
285 294 292 291 289 281 270 266 270 275 276 270 267 274 273 253 245 256 261 254 243 243 247 250 260 260 256 262 273 275 271 270 272 275 278 281 284 286 282 271 258 252 257 262 265 261 249 236 228 226 230 234 231 226 225 225 226 230 233 231 228 228 229 229 228 230 234 231 227 229 239 255 269 275 282 290 294 294 296 299 301 303 306 308 307 307 311
291 295 293 292 293 287 279 274 266 265 268 267 254 249 251 247 244 251 257 254 238 235 240 244 251 262 277 293 301 298 291 284 280 280 280 281 284 288 286 277 267 266 268 270 270 266 253 239 233 233 234 234 232 229 226 225 226 230 231 228 227 229 231 230 229 231 232 229 228 232 238 249 262 269 275 281 286 289 294 298 301 306 309 307 308 313 318
281 288 285 281 282 282 280 274 262 255 257 257 251 249 247 242 243 246 249 248 241 231 232 243 256 273 293 306 306 304 303 297 290 286 284 287 293 298 298 294 288 283 281 279 277 271 260 248 245 243 239 234 232 231 228 226 228 231 231 229 229 232 234 233 232 232 230 228 230 235 239 246 254 260 268 275 280 286 293 297 302 307 309 309 313 320 323
256 261 265 265 267 272 275 273 266 262 260 252 249 255 257 245 229 219 222 226 227 224 226 238 259 282 299 306 307 309 311 306 297 291 292 298 305 308 309 309 304 296 292 290 284 275 264 256 253 249 242 236 233 232 229 228 230 232 232 231 231 234 237 237 234 230 227 229 232 236 239 243 247 253 261 269 275 282 291 296 300 304 306 310 317 322 323
265 264 269 271 266 262 265 267 265 263 263 260 258 256 246 231 217 208 210 214 212 209 209 209 214 226 254 304 314 315 310 297 285 286 293 301 306 309 313 314 309 302 301 301 297 288 275 265 257 250 244 239 235 232 230 230 232 233 234 233 234 236 240 240 236 231 229 231 233 235 238 241 244 250 257 264 271 279 288 295 299 301 304 309 316 319 320
295 283 276 277 272 265 263 264 262 255 249 249 252 243 225 213 204 197 202 210 211 211 209 200 189 183 176 219 278 285 286 284 283 290 299 307 313 316 316 310 305 304 303 303 307 305 293 276 264 254 245 239 235 232 232 234 236 236 236 236 237 239 242 243 240 236 232 231 232 236 239 240 242 247 254 262 271 280 290 297 300 301 305 312 316 318 318
323 311 289 284 286 280 274 273 273 266 253 245 244 221 190 191 184 171 180 204 235 245 235 216 185 153 107 311 295 291 292 295 298 302 307 316 325 326 319 310 306 305 294 290 301 308 305 294 280 263 247 238 235 232 231 234 238 238 237 237 238 240 242 243 242 238 234 231 232 236 239 238 237 243 252 263 273 286 295 298 299 302 307 313 316 317 318
343 346 341 330 322 321 332 358 13 24 37 45 48 52 53 50 49 48 43 37 29 9 329 336 34 34 19 0 346 336 329 327 324 319 320 327 331 325 310 299 292 282 273 280 295 304 305 301 292 273 252 240 234 231 230 235 241 242 240 240 240 241 242 243 242 239 235 231 231 235 236 234 235 241 252 264 277 289 295 295 294 298 306 311 315 318 320
352 358 3 3 3 12 27 37 43 48 48 45 42 40 36 35 41 46 42 36 31 24 16 13 17 21 18 7 352 341 338 339 337 332 331 333 327 312 301 298 295 289 288 295 301 304 304 300 292 278 261 245 234 228 231 244 251 249 245 242 242 241 242 243 243 240 235 231 231 233 233 232 234 241 252 266 278 286 288 288 287 291 300 308 313 318 321
4 5 17 25 25 25 28 31 34 37 39 38 34 27 19 16 22 30 28 21 19 18 13 6 5 7 4 355 340 332 335 338 338 336 335 332 326 319 314 316 321 324 324 320 317 315 313 305 291 277 265 250 236 226 229 246 256 255 249 244 242 242 243 243 241 238 233 229 228 231 231 229 233 242 253 265 275 281 281 279 279 284 293 302 310 317 322
51 36 44 51 45 37 37 38 35 33 32 31 26 19 13 10 11 14 10 2 359 0 1 357 352 348 346 343 335 332 334 338 340 341 339 331 326 325 320 321 329 336 338 335 329 323 318 310 293 276 265 255 242 229 224 240 256 257 251 245 244 244 242 241 237 233 230 228 228 230 230 229 233 244 255 264 273 279 274 270 271 278 286 296 307 316 322
14 22 32 42 43 39 38 36 33 29 26 25 22 15 7 1 357 356 355 351 347 344 346 347 346 343 343 344 341 338 341 344 345 345 344 337 328 316 300 314 331 338 340 338 335 331 324 316 301 283 269 257 245 233 228 240 255 257 252 248 247 244 240 238 234 229 227 226 227 228 228 229 236 247 256 264 273 275 267 261 265 272 279 291 305 314 320
345 346 344 344 356 13 20 22 26 24 18 18 19 13 3 356 351 347 345 343 338 333 333 337 341 342 343 344 342 341 343 345 344 342 342 341 338 332 318 320 332 339 340 339 338 336 330 320 307 291 275 256 240 233 235 246 256 259 254 249 245 241 236 232 228 223 220 220 220 222 226 232 242 251 258 265 269 266 257 253 258 265 275 288 299 309 319
339 338 331 321 316 321 334 345 0 11 4 2 4 4 1 353 344 338 335 332 327 322 321 324 329 333 335 337 337 333 334 336 335 331 331 334 339 341 339 335 334 337 340 340 340 339 334 327 315 299 279 258 245 244 248 253 258 259 254 246 244 244 239 231 222 215 213 212 213 219 229 240 249 255 260 263 262 255 249 249 254 262 272 283 292 304 315
325 328 328 321 309 297 294 297 298 295 303 322 332 342 350 348 338 332 327 318 312 309 309 312 316 321 324 327 329 330 331 332 329 321 312 305 314 328 335 337 336 336 337 338 339 339 340 336 327 312 292 274 269 273 276 272 267 262 254 243 241 247 243 233 220 209 205 206 213 225 238 247 252 256 256 253 250 248 248 248 251 258 269 278 289 303 313
306 310 312 309 299 292 294 298 295 282 266 259 263 268 265 263 275 284 286 287 290 293 296 299 301 302 304 309 320 330 334 334 332 325 315 300 298 315 327 333 334 333 333 335 336 338 341 341 336 329 317 303 293 290 286 278 266 256 245 233 226 226 228 226 221 218 219 224 230 234 238 241 240 239 239 242 247 251 249 246 248 257 268 278 289 302 311
294 293 293 293 292 293 295 296 292 281 272 266 258 255 255 253 251 254 262 271 279 281 282 282 278 274 282 298 312 319 320 321 326 331 332 326 321 324 328 330 330 330 331 331 331 333 336 336 334 332 328 320 309 297 283 267 250 234 216 194 175 164 175 214 238 249 253 248 238 229 224 223 223 225 233 247 256 253 244 242 247 255 263 276 292 306 313
287 281 281 285 291 295 295 293 284 269 260 255 251 254 259 261 262 264 269 276 278 276 272 269 264 262 268 278 289 304 309 303 305 323 334 334 330 328 330 331 329 329 328 326 326 328 329 328 327 327 324 319 310 294 271 245 224 205 187 175 173 185 208 224 232 238 241 238 231 226 224 224 223 229 238 248 253 248 242 241 247 254 264 287 307 316 319
282 279 279 280 281 284 287 284 273 261 262 262 260 262 267 272 275 277 281 285 286 283 280 276 269 267 269 271 277 296 310 303 296 314 331 335 332 330 330 331 330 328 326 324 322 322 321 319 319 319 318 312 297 272 243 220 208 203 197 192 194 206 218 221 222 225 228 228 227 227 227 224 223 231 245 254 252 246 241 241 245 255 278 307 318 320 321
279 277 275 273 273 276 280 277 271 273 278 278 275 276 278 278 275 279 288 294 295 291 288 284 278 277 277 275 276 289 306 310 310 319 329 334 333 331 329 328 328 328 327 325 322 320 319 315 309 307 308 303 275 239 222 214 210 210 210 210 215 220 220 219 220 224 225 226 225 224 223 223 225 233 251 263 257 246 240 237 240 260 300 317 321 323 325
276 277 278 281 285 288 287 284 282 282 284 286 286 287 287 282 277 282 292 296 293 289 286 286 285 286 286 282 280 289 302 309 314 320 326 331 333 333 330 328 327 328 327 325 322 319 317 315 307 300 297 290 268 246 236 230 226 229 236 241 238 229 222 222 227 228 225 223 224 225 223 223 226 232 250 264 255 238 226 221 224 271 316 321 324 328 331
284 288 290 291 294 296 296 295 293 291 291 293 294 296 296 292 287 289 296 298 294 287 282 280 284 292 293 288 283 289 300 307 312 317 322 326 330 331 331 330 330 329 328 327 324 319 315 313 309 300 291 285 279 270 261 252 245 244 250 256 255 244 232 231 236 235 227 223 226 227 223 219 220 229 247 254 235 212 203 203 218 314 326 324 325 332 336